Location: Borovka
(49.7741°N, 14.5280°E)
Time: 15:49:35
(UTC+00:00)

Thor Agena Rocket - Pass Details

Date: 18 February 2026
Orbit: 755 x 801 km, 99.1° (Epoch: 8 March)

Event Time Altitude Azimuth Distance (km) Brightness Sun altitude
Rises 05:09:42 0° 20° (NNE) 3,318 7.0 -9.8°
Reaches altitude 10° 05:12:10 10° 27° (NNE) 2,386 6.3 -9.4°
Maximum altitude 05:17:10 43° 99° (E) 1,124 5.1 -8.6°
Drops below altitude 10° 05:22:09 10° 170° (S) 2,371 6.3 -7.8°
Sets 05:24:35 0° 177° (S) 3,294 6.9 -7.4°
